Flag for U.S.A. Weather past 2 weeks in Hudson, Wisconsin, U.S.A.

Now
64 °F

Rain. Fog.


Feels Like: 64 °F
Forecast: 64 / 80 °F
Wind: 14 mph from Southeast

Location: St. Paul Downtown Holman Field

Current Time: Jul 25, 2014 at 6:29:02 AM

Latest Report: Jul 25, 2014 at 6:00 AM


Visibility: 5 mi

Pressure: 29.83 "Hg

Humidity: 94%

Dew point: 62 °F

Location of HudsonLocation

Historic Weather in Hudson — Graph

°F

Hudson temperature yesterday

Maximum temperature yesterday: 79 °F (at 12:53 PM)
Minimum temperature yesterday: 62 °F (at 4:53 AM)
Average temperature yesterday: 72 °F

Past Weeks' High & Low Weather Summary

 TemperatureHumidityPressure
High89 °F (Jul 21, 3:53 PM)97% (Jul 11, 8:53 AM)30.24 "Hg (Jul 11, 8:53 AM)
Low53 °F (Jul 16, 5:53 AM)37% (Jul 16, 2:53 PM)29.76 "Hg (Jul 24, 5:53 PM)
Average71 °F69%29.97 "Hg
* Reported Jul 10 4:53 AM — Jul 25 4:53 AM, Hudson, Weather by CustomWeather, © 2014

Note: Actual official high and low records may vary slightly from our data, if they occured in-between our weather recording intervals... More about our weather records

Advertising

Hudson weather history for previous 24 hours

 ConditionsComfort  
Time TempWeatherWind HumidityBarometerVisibility
4:53 AM
Jul 25
68 °FPassing clouds.12 mph76%29.86 "Hg10 mi
3:53 AM68 °FPassing clouds.13 mph76%29.85 "Hg10 mi
2:53 AM68 °FOvercast.13 mph73%29.87 "Hg10 mi
1:53 AM68 °FClear.13 mph73%29.84 "Hg10 mi
12:53 AM69 °FClear.6 mph73%29.91 "Hg10 mi
11:53 PM
Jul 24
70 °FClear.8 mph68%29.92 "Hg10 mi
10:53 PM70 °FClear.8 mph71%29.94 "Hg10 mi
9:53 PM73 °FPassing clouds.7 mph64%29.93 "Hg10 mi
8:53 PM74 °FOvercast.8 mph62%29.90 "Hg10 mi
7:53 PM75 °FMostly cloudy.8 mph62%29.90 "Hg10 mi
6:53 PM78 °FPassing clouds.9 mph54%29.91 "Hg10 mi
5:53 PM76 °FPassing clouds.31 mph56%29.76 "Hg10 mi
4:53 PM77 °FSunny.9 mph54%29.96 "Hg10 mi
3:53 PM78 °FScattered clouds.9 mph46%30.04 "Hg10 mi
2:53 PM79 °FScattered clouds.10 mph45%30.04 "Hg10 mi
1:53 PM79 °FPartly sunny.9 mph45%30.02 "Hg10 mi
12:53 PM79 °FScattered clouds.9 mph47%30.06 "Hg10 mi
11:53 AM78 °FSunny.9 mph48%30.08 "Hg10 mi
10:53 AM77 °FSunny.7 mph52%30.11 "Hg10 mi
9:53 AM74 °FSunny.5 mph60%30.12 "Hg10 mi
8:53 AM70 °FSunny.6 mph68%30.14 "Hg10 mi
7:53 AM66 °FSunny.7 mph75%30.13 "Hg10 mi
6:53 AM63 °FSunny.5 mph87%30.14 "Hg10 mi
Weather by CustomWeather, © 2014

See weather overviewHow to use our weather pages